Regional Weather Roundup
Issued by NWS Kansas City/Pleasant Hill, MO

Home | Current Version | Previous Version | Graphics & Text | Print | Product List | Glossary Off
Versions: 1 2 3 4 5 6 7 8 9 10 11 12 13 14 15 16 17 18 19 20 21 22 23 24 25 26 27 28 29 30 31 32 33 34 35 36 37 38 39 40 41 42 43 44 45 46 47 48 49 50

387
ASUS43 KEAX 231810
RWREAX

WEATHER ROUNDUP FOR EASTERN KANSAS AND NORTHWEST MISSOURI
NATIONAL WEATHER SERVICE KANSAS CITY/PLEASANT HILL MO
100 PM CDT SAT SEP 23 2017

KSZ040-057-103>105-MOZ028-029-037-043-231900-
...KANSAS CITY METROPOLITAN AREA...

CITY           SKY/WX    TMP DP  RH WIND       PRES   REMARKS
K.C. INTL      MOSUNNY   87  69  54 S13       30.03F HX  91
6HR MIN TEMP:  68; 6HR MAX TEMP:  87;

K.C. DOWNTOWN  SUNNY     90  69  50 S10       30.01F HX  94
6HR MIN TEMP:  74; 6HR MAX TEMP:  90;

LEES SUMMIT    SUNNY     88  70  55 S10       30.04F HX  93
6HR MIN TEMP:  72; 6HR MAX TEMP:  88;

OLATHE - IXD   MOSUNNY   86  69  56 S14       30.03F HX  90
6HR MIN TEMP:  68; 6HR MAX TEMP:  86;

OLATHE - OJC   MOSUNNY   85  70  60 S7        30.03F
6HR MIN TEMP:  67; 6HR MAX TEMP:  85;

LAWRENCE       SUNNY     88  69  53 SE13      30.01F HX  92

$$

MOZ001>008-011>017-020>025-030>033-038>040-044>046-053-054-231900-
...NORTHERN AND CENTRAL MISSOURI...

CITY           SKY/WX    TMP DP  RH WIND       PRES   REMARKS
ST. JOSEPH     SUNNY     91  67  44 SW14      30.00F HX  94
6HR MIN TEMP:  69; 6HR MAX TEMP:  91; 6HR PCP: TRACE;

MOSBY          CLEAR     88  64  45 SW5       30.02F
WARRENSBURG    SUNNY     88  68  51 S5        30.04S HX  91
WHITEMAN AFB   SUNNY     88  70  55 CALM      30.03F HX  92
6HR MIN TEMP:  68; 6HR MAX TEMP:  88;

CLINTON        SUNNY     86  70  58 S6        30.05F HX  90
SEDALIA        SUNNY     89  70  53 SW5       30.06F HX  94
6HR MIN TEMP:  68; 6HR MAX TEMP:  90;

WARSAW         NOT AVBL
CHILLICOTHE      N/A     89  72  56 CALM      30.03F HX  96
6HR MIN TEMP:  67; 6HR MAX TEMP:  89;

KIRKSVILLE     SUNNY     90  66  45 S3        30.06F HX  92
6HR MIN TEMP:  65; 6HR MAX TEMP:  90;


$$

MOZ041-047>049-056>058-063>065-088>090-097-231900-
...EASTERN AND SOUTHERN MISSOURI...

CITY           SKY/WX    TMP DP  RH WIND       PRES   REMARKS
ST. LOUIS INTL PTSUNNY   89  64  43 E9        30.07F HX  90
6HR MIN TEMP:  70; 6HR MAX TEMP:  90;

SPIRIT OF STL  MOSUNNY   89  68  49 CALM      30.05F HX  93
COLUMBIA       SUNNY     89  67  47 S7        30.06F HX  92
JEFFERSON CITY SUNNY     88  66  48 E5        30.04F HX  90
ROLLA          MOSUNNY   88  64  44 E5        30.08F
OSAGE BEACH    SUNNY     88  66  48 VRB5      30.05F HX  90
SPRINGFIELD    MOSUNNY   88  65  46 SE7       30.05F HX  90
BRANSON        PTSUNNY   90  61  37 NE3       30.07F
JOPLIN         MOSUNNY   88  68  51 S12       30.03F HX  91
WEST PLAINS    CLOUDY    89  63  41 VRB7      30.08F HX  90

$$

IAZ060-094-KSZ022-034>040-054-083-096-NEZ052-066-093-231900-
...KANSAS...SOUTHEAST NEBRASKA AND IOWA...

CITY           SKY/WX    TMP DP  RH WIND       PRES   REMARKS
TOPEKA         SUNNY     88  69  53 S12       29.99F HX  92
6HR MIN TEMP:  67; 6HR MAX TEMP:  88; 6HR PCP: TRACE;

MANHATTAN      MOSUNNY   91  66  43 S14G28    29.96F HX  93
EMPORIA        MOSUNNY   85  66  53 S13G23    30.00F
CHANUTE        SUNNY     87  67  51 S16       30.02F HX  90
WICHITA        MOSUNNY   88  66  48 S21       29.96F HX  90
OMAHA          PTSUNNY   88  67  49 S21G26    29.95F HX  91
LINCOLN        SUNNY     90  66  45 S18G28    29.93F HX  92
FALLS CITY     MOSUNNY   88  66  48 S9        29.97F HX  90
LAMONI         MOSUNNY   88  66  48 S13       30.03F HX  90
DES MOINES     MOSUNNY   90  66  45 S13       30.00F HX  92

$$





USA.gov is the U.S. government's official web portal to all federal, state and local government web resources and services.